• In United Kingdom
  • List of Countries
  • For 7 days
  • Water Temperature
  • Satellite Maps
  • Weather Map
  • Weather Widgets
  • user-avatar
    Login

    Hourly Weather Zaluzhe

    Today, 24 September, Monday

    Time Temperature Precipitation Wind Pressure Humidity
    00:00 +10°C° 1.2 mm 3 mps 741 mmHg 91%
    01:00 +10°C° 1.2 mm 3 mps 740 mmHg 92%
    02:00 +10°C° 0 mm 3 mps 739 mmHg 94%
    03:00 +10°C° 2 mm 4 mps 737 mmHg 94%
    04:00 +9°C° 2 mm 5 mps 736 mmHg 93%
    05:00 +9°C° 2 mm 6 mps 734 mmHg 93%
    06:00 +9°C° 2.1 mm 6 mps 734 mmHg 93%
    07:00 +9°C° 2.1 mm 5 mps 734 mmHg 94%
    08:00 +9°C° 0 mm 6 mps 733 mmHg 94%
    09:00 +9°C° 0.4 mm 7 mps 734 mmHg 91%
    10:00 +7°C° 0.4 mm 8 mps 735 mmHg 88%
    11:00 +7°C° 0.4 mm 9 mps 736 mmHg 86%
    12:00 +8°C° 0.1 mm 9 mps 737 mmHg 81%
    13:00 +10°C° 0.1 mm 8 mps 738 mmHg 76%
    14:00 +10°C° 0.1 mm 7 mps 740 mmHg 72%
    15:00 +10°C° 0.2 mm 7 mps 740 mmHg 73%
    16:00 +10°C° 0.2 mm 6 mps 741 mmHg 74%
    17:00 +10°C° 0.2 mm 5 mps 741 mmHg 75%
    18:00 +9°C° 0.2 mm 5 mps 742 mmHg 78%
    19:00 +8°C° 0.2 mm 5 mps 742 mmHg 81%
    20:00 +7°C° 0.2 mm 5 mps 743 mmHg 83%
    21:00 +7°C° 0.1 mm 5 mps 743 mmHg 85%
    22:00 +7°C° 0.1 mm 5 mps 744 mmHg 86%
    23:00 +7°C° 0.1 mm 5 mps 744 mmHg 87%

    Tomorrow, 25 September, Tuesday

    Time Temperature Precipitation Wind Pressure Humidity
    00:00 +6°C° 0.1 mm 5 mps 745 mmHg 88%
    01:00 +6°C° 0.1 mm 5 mps 745 mmHg 88%
    02:00 +6°C° 0.1 mm 5 mps 746 mmHg 89%
    03:00 +5°C° 0 mm 5 mps 746 mmHg 89%
    04:00 +5°C° 0 mm 5 mps 747 mmHg 89%
    05:00 +4°C° 0 mm 6 mps 748 mmHg 89%
    06:00 +4°C° 0 mm 6 mps 748 mmHg 87%
    07:00 +4°C° 0 mm 6 mps 749 mmHg 85%
    08:00 +4°C° 0 mm 6 mps 750 mmHg 82%
    09:00 +5°C° 0 mm 6 mps 750 mmHg 76%
    10:00 +6°C° 0 mm 7 mps 751 mmHg 69%
    11:00 +9°C° 0 mm 7 mps 751 mmHg 62%
    12:00 +9°C° 0.2 mm 7 mps 752 mmHg 62%
    13:00 +9°C° 0.2 mm 7 mps 752 mmHg 61%
    14:00 +9°C° 0.2 mm 7 mps 752 mmHg 60%
    15:00 +9°C° 0.1 mm 6 mps 753 mmHg 62%
    16:00 +8°C° 0.1 mm 6 mps 753 mmHg 63%
    17:00 +8°C° 0.1 mm 5 mps 754 mmHg 64%
    18:00 +7°C° 0 mm 5 mps 754 mmHg 68%
    19:00 +6°C° 0 mm 5 mps 755 mmHg 71%
    20:00 +5°C° 0 mm 4 mps 756 mmHg 75%
    21:00 +5°C° 0 mm 4 mps 756 mmHg 77%
    22:00 +4°C° 0 mm 4 mps 757 mmHg 79%
    23:00 +4°C° 0 mm 4 mps 758 mmHg 80%

    Day after tomorrow, 26 September, Wednesday

    Time Temperature Precipitation Wind Pressure Humidity
    00:00 +4°C° 0 mm 4 mps 758 mmHg 83%
    01:00 +3°C° 0 mm 4 mps 759 mmHg 85%
    02:00 +3°C° 0 mm 3 mps 759 mmHg 87%
    03:00 +2°C° 0 mm 3 mps 759 mmHg 88%
    04:00 +2°C° 0 mm 3 mps 759 mmHg 89%
    05:00 +2°C° 0 mm 3 mps 760 mmHg 90%
    06:00 +3°C° 0 mm 3 mps 760 mmHg 85%
    07:00 +4°C° 0 mm 3 mps 760 mmHg 80%
    08:00 +4°C° 0 mm 3 mps 760 mmHg 75%
    09:00 +6°C° 0 mm 4 mps 760 mmHg 67%
    10:00 +8°C° 0 mm 4 mps 760 mmHg 60%
    11:00 +10°C° 0 mm 5 mps 760 mmHg 53%
    12:00 +10°C° 0 mm 5 mps 759 mmHg 52%
    13:00 +11°C° 0 mm 6 mps 759 mmHg 52%
    14:00 +11°C° 0 mm 6 mps 758 mmHg 51%
    15:00 +12°C° 0 mm 5 mps 757 mmHg 54%
    16:00 +10°C° 0 mm 5 mps 757 mmHg 57%
    17:00 +11°C° 0 mm 4 mps 756 mmHg 60%
    18:00 +9°C° 0 mm 5 mps 756 mmHg 61%
    19:00 +9°C° 0 mm 5 mps 756 mmHg 62%
    20:00 +9°C° 0 mm 5 mps 755 mmHg 64%
    21:00 +8°C° 0.1 mm 6 mps 755 mmHg 65%
    22:00 +8°C° 0.1 mm 6 mps 754 mmHg 66%
    23:00 +8°C° 0.1 mm 6 mps 754 mmHg 67%

    27 September, Thursday

    Time Temperature Precipitation Wind Pressure Humidity
    00:00 +8°C° 0.6 mm 7 mps 753 mmHg 72%
    01:00 +6°C° 0.6 mm 7 mps 752 mmHg 78%
    02:00 +6°C° 0.6 mm 7 mps 752 mmHg 84%
    03:00 +6°C° 0.7 mm 7 mps 751 mmHg 84%
    04:00 +8°C° 0.7 mm 7 mps 751 mmHg 83%
    05:00 +8°C° 0.7 mm 6 mps 750 mmHg 83%
    06:00 +8°C° 0.1 mm 7 mps 750 mmHg 82%
    07:00 +9°C° 0.1 mm 7 mps 750 mmHg 80%
    08:00 +9°C° 0.1 mm 7 mps 749 mmHg 79%
    09:00 +10°C° 0 mm 7 mps 749 mmHg 79%
    10:00 +11°C° 0 mm 7 mps 749 mmHg 78%
    11:00 +12°C° 0 mm 7 mps 749 mmHg 77%
    12:00 +14°C° 0 mm 7 mps 749 mmHg 77%
    13:00 +15°C° 0 mm 7 mps 749 mmHg 76%
    14:00 +15°C° 0 mm 7 mps 749 mmHg 76%
    15:00 +15°C° 0 mm 7 mps 749 mmHg 76%
    16:00 +15°C° 0 mm 7 mps 749 mmHg 77%
    17:00 +15°C° 0 mm 7 mps 749 mmHg 78%
    18:00 +15°C° 0 mm 6 mps 749 mmHg 80%
    19:00 +15°C° 0 mm 6 mps 749 mmHg 81%
    20:00 +14°C° 0 mm 6 mps 750 mmHg 83%
    21:00 +14°C° 0 mm 6 mps 750 mmHg 85%
    22:00 +13°C° 0 mm 5 mps 750 mmHg 88%
    23:00 +13°C° 0 mm 5 mps 750 mmHg 90%

    28 September, Friday

    Time Temperature Precipitation Wind Pressure Humidity
    00:00 +13°C° 0 mm 5 mps 749 mmHg 90%
    01:00 +12°C° 0 mm 5 mps 749 mmHg 91%
    02:00 +12°C° 0 mm 5 mps 749 mmHg 92%
    03:00 +12°C° 0 mm 5 mps 748 mmHg 92%
    04:00 +12°C° 0 mm 5 mps 748 mmHg 92%
    05:00 +11°C° 0 mm 6 mps 747 mmHg 93%
    06:00 +11°C° 0 mm 6 mps 747 mmHg 90%
    07:00 +13°C° 0 mm 6 mps 747 mmHg 88%
    08:00 +14°C° 0 mm 7 mps 747 mmHg 86%
    09:00 +14°C° 0 mm 6 mps 747 mmHg 84%
    10:00 +14°C° 0 mm 6 mps 747 mmHg 83%
    11:00 +15°C° 0 mm 6 mps 746 mmHg 81%
    12:00 +15°C° 0.1 mm 6 mps 747 mmHg 79%
    13:00 +15°C° 0.1 mm 6 mps 747 mmHg 77%
    14:00 +16°C° 0.1 mm 6 mps 747 mmHg 75%
    15:00 +15°C° 0.1 mm 6 mps 747 mmHg 75%
    16:00 +15°C° 0.1 mm 5 mps 747 mmHg 75%
    17:00 +14°C° 0.1 mm 5 mps 747 mmHg 75%
    18:00 +13°C° 0 mm 4 mps 747 mmHg 77%
    19:00 +12°C° 0 mm 4 mps 747 mmHg 79%
    20:00 +10°C° 0 mm 3 mps 748 mmHg 82%
    21:00 +10°C° 0 mm 3 mps 748 mmHg 82%
    22:00 +9°C° 0 mm 3 mps 748 mmHg 83%
    23:00 +8°C° 0 mm 3 mps 749 mmHg 83%

    29 September, Saturday

    Time Temperature Precipitation Wind Pressure Humidity
    00:00 +8°C° 0 mm 3 mps 749 mmHg 83%
    01:00 +7°C° 0 mm 3 mps 749 mmHg 83%
    02:00 +7°C° 0 mm 3 mps 749 mmHg 83%
    03:00 +7°C° 0 mm 3 mps 750 mmHg 80%
    04:00 +7°C° 0 mm 3 mps 750 mmHg 78%
    05:00 +7°C° 0 mm 3 mps 750 mmHg 76%
    06:00 +6°C° 0 mm 4 mps 751 mmHg 76%
    07:00 +6°C° 0 mm 4 mps 751 mmHg 76%
    08:00 +6°C° 0 mm 4 mps 751 mmHg 77%
    09:00 +7°C° 0 mm 4 mps 752 mmHg 70%
    10:00 +8°C° 0 mm 4 mps 752 mmHg 63%
    11:00 +9°C° 0 mm 5 mps 753 mmHg 57%
    12:00 +9°C° 0 mm 5 mps 753 mmHg 54%
    13:00 +10°C° 0 mm 5 mps 753 mmHg 51%
    14:00 +10°C° 0 mm 5 mps 753 mmHg 48%
    15:00 +10°C° 0 mm 4 mps 753 mmHg 51%
    16:00 +10°C° 0 mm 3 mps 754 mmHg 53%
    17:00 +9°C° 0 mm 3 mps 754 mmHg 56%
    18:00 +8°C° 0 mm 2 mps 754 mmHg 60%
    19:00 +7°C° 0 mm 2 mps 755 mmHg 64%
    20:00 +5°C° 0 mm 2 mps 756 mmHg 68%
    21:00 +6°C° 0 mm 1 mps 756 mmHg 69%
    22:00 +6°C° 0 mm 1 mps 756 mmHg 71%
    23:00 +5°C° 0 mm 1 mps 756 mmHg 72%
    Show more